Dewpoint
61 62 62 61 61 62 62 62 62 63 62 63 63 64 63 64 64 64 64 63 63 63 63 63 62 63 63 63 63 62 61 57 57 56 54 56 60 61 61 61 59 57 55 46 45 43 39 35 33 33 30 29 35 27 37 38 41 36 29 31 27 29 26 29 21 21 24 20 22 24 24 21 21 23 25 37 44 47 50 53 53 57 57 56 57 58 58 59
60 61 62 61 61 62 61 62 62 62 63 63 63 63 63 64 64 64 64 63 63 63 63 63 63 63 63 63 63 62 58 57 55 56 54 61 62 61 61 61 61 60 52 49 46 45 43 36 33 33 29 27 42 28 36 36 39 33 31 29 25 29 29 29 22 22 22 20 22 24 24 21 20 21 23 32 37 43 47 50 53 55 56 57 57 58 58 59
59 60 61 61 61 61 62 62 62 62 62 62 62 63 63 63 62 63 63 63 63 63 63 63 63 63 62 62 62 60 57 56 55 53 55 62 61 61 60 60 58 57 47 48 53 49 46 41 36 32 31 27 29 28 35 32 35 35 31 27 28 33 29 21 20 21 23 22 23 23 23 22 22 20 24 32 35 39 45 51 51 52 54 56 57 58 58 58
58 59 60 61 61 61 62 62 62 62 62 62 61 62 62 62 63 63 63 63 63 62 62 62 62 62 62 61 60 58 56 54 51 54 57 63 61 61 61 61 60 59 52 52 51 52 53 49 37 33 33 29 26 38 33 34 29 29 28 28 29 32 19 17 21 21 22 23 23 22 22 22 23 21 21 29 30 32 38 51 51 54 55 56 57 58 58 58
57 59 60 61 61 61 62 61 61 61 62 62 62 62 62 62 62 63 63 63 63 62 62 62 62 62 61 61 60 56 52 48 48 54 59 64 62 62 62 62 61 59 54 55 52 50 51 50 43 34 33 26 26 28 29 32 30 31 25 31 30 24 20 18 21 23 24 24 22 21 19 20 22 20 20 27 24 24 28 41 49 56 57 57 57 57 57 57
58 58 59 61 61 61 61 61 61 62 62 62 61 61 62 62 62 62 63 63 63 62 63 62 62 61 61 60 58 55 47 39 53 54 63 64 63 62 62 62 61 59 55 51 51 51 49 50 49 36 25 21 23 23 24 27 30 23 24 23 23 21 17 21 25 22 22 21 20 20 20 19 18 19 20 23 18 18 22 37 48 57 58 58 58 58 57 57
59 59 59 60 60 60 61 61 61 61 62 62 61 62 62 63 63 62 63 63 62 62 62 62 62 61 60 60 57 54 48 48 45 52 61 64 64 64 63 62 61 58 54 48 47 51 49 48 49 37 29 24 23 21 22 25 28 26 23 21 21 23 18 23 21 23 20 20 19 19 20 19 18 16 19 18 18 19 24 33 52 58 58 59 58 58 57 57
58 59 58 59 60 60 60 61 61 61 61 61 61 62 62 62 62 62 62 63 62 62 62 62 61 60 60 56 54 53 51 48 50 53 63 64 63 63 62 59 58 56 53 49 46 50 50 47 48 40 28 25 20 21 24 24 25 25 24 24 22 22 22 22 20 19 20 21 20 20 18 18 17 17 19 17 21 23 35 40 57 58 58 58 58 58 58 58
57 59 59 59 59 60 60 61 61 61 61 61 61 61 62 62 62 62 62 62 62 62 62 62 61 60 59 56 53 51 51 55 51 59 63 62 62 60 58 57 57 54 53 51 48 48 48 49 44 37 31 21 22 20 21 22 21 24 24 23 22 21 22 21 20 20 19 20 19 18 18 20 20 21 18 19 21 26 48 52 58 58 57 57 58 58 58 58
57 58 59 59 59 60 60 60 61 61 61 61 61 62 62 62 62 62 62 62 62 62 62 61 60 60 57 54 53 48 53 57 59 60 61 60 59 58 57 57 55 53 51 52 51 48 48 49 43 33 31 27 24 22 23 24 21 23 24 22 20 21 23 22 19 19 21 21 19 17 19 19 20 19 15 18 21 39 52 55 57 57 57 57 57 58 58 58
57 58 59 59 59 59 60 60 60 61 61 61 61 62 62 62 62 62 62 62 62 62 61 61 60 58 56 54 51 47 53 57 59 60 59 59 57 56 56 56 54 52 51 52 50 50 48 46 49 35 33 27 24 21 19 19 23 23 20 19 19 20 22 22 21 19 19 18 20 18 19 22 20 19 14 17 21 44 52 54 56 56 57 57 57 57 58 58
57 58 59 59 58 60 60 60 60 60 61 61 62 62 62 62 62 61 61 62 62 62 61 60 60 57 56 54 51 50 52 57 60 60 59 57 55 55 57 56 53 51 50 50 51 51 50 51 43 32 28 28 22 19 17 19 21 20 19 18 19 20 20 20 18 19 20 18 20 19 16 17 20 15 16 18 25 41 52 53 54 55 56 56 56 57 57 58
56 58 59 59 58 59 60 60 60 61 61 60 61 61 61 62 62 61 61 61 62 61 60 60 59 57 55 51 52 49 54 58 60 59 58 58 58 58 58 57 55 52 51 50 50 50 53 51 47 37 32 28 26 24 20 22 21 20 19 18 18 18 17 18 21 22 18 18 23 19 12 15 15 17 18 20 29 37 49 51 53 54 55 55 55 56 57 57
56 57 58 57 58 59 60 60 60 60 60 60 61 61 61 61 61 61 60 61 61 61 60 60 57 56 54 52 49 53 54 58 59 57 56 55 53 55 54 55 56 57 54 52 53 54 50 52 46 37 32 27 24 25 18 19 20 17 18 18 18 17 16 18 20 21 16 20 21 14 15 14 13 14 17 23 27 38 44 48 49 50 52 53 54 55 56 57
56 57 58 58 58 58 59 60 60 61 61 60 60 60 60 60 61 61 60 60 61 61 60 58 56 54 52 52 50 54 57 59 56 56 56 51 52 52 51 50 52 55 57 55 53 54 54 47 43 35 29 29 27 24 19 18 18 17 16 16 20 16 17 19 22 19 15 18 18 11 17 11 8 12 18 21 24 31 37 38 40 41 43 46 51 53 54 56
55 57 57 58 58 58 59 59 60 60 60 60 60 59 59 59 60 60 60 60 60 59 57 54 54 53 49 47 48 56 54 54 54 56 56 51 51 49 50 47 49 50 53 52 54 55 52 47 41 33 28 27 19 17 16 19 19 17 17 22 20 17 17 18 20 21 20 17 18 11 11 13 8 14 18 21 22 23 25 29 31 32 35 36 43 49 51 53
56 56 57 58 58 58 58 59 59 60 59 59 59 59 59 59 60 60 60 60 58 56 55 52 53 52 45 46 53 49 49 53 55 56 55 52 49 50 47 48 49 48 52 50 52 47 46 41 33 29 24 22 18 19 16 17 18 17 24 19 24 15 17 15 19 22 27 15 14 17 11 11 11 13 17 21 20 20 20 23 29 29 30 31 36 44 47 50
56 56 57 57 58 58 58 59 59 59 59 58 58 58 59 60 61 59 57 56 54 53 50 51 52 47 47 44 44 46 49 48 53 54 54 50 45 48 46 47 49 47 47 49 49 47 44 42 29 24 23 22 18 18 17 15 19 18 17 19 17 18 16 16 16 16 17 21 13 15 14 12 12 14 17 19 20 19 19 19 23 28 29 29 35 41 46 48
56 56 57 58 57 58 58 58 59 59 59 59 59 59 59 58 55 54 51 51 50 47 45 45 46 41 39 42 43 46 47 48 51 53 53 48 45 46 42 42 43 39 43 46 45 44 44 35 30 24 22 20 19 16 18 23 24 19 22 19 21 17 18 17 18 21 18 17 13 15 13 13 13 13 15 18 19 18 17 17 16 18 27 29 33 39 44 46
56 56 57 58 58 58 58 58 59 58 59 58 57 54 52 49 48 46 50 50 47 45 38 46 46 42 40 41 42 45 47 48 47 49 48 43 40 40 35 38 41 43 41 39 41 44 36 32 25 21 21 20 18 18 20 24 20 19 24 23 17 16 19 20 22 22 21 17 15 14 14 13 13 13 13 17 19 19 18 17 16 15 20 27 30 37 41 44
56 57 58 58 58 58 58 58 58 58 58 56 54 52 46 45 42 40 45 47 44 43 44 45 46 42 42 42 43 44 43 43 46 44 42 42 37 34 33 35 37 39 41 41 40 43 34 30 27 22 20 18 16 18 18 20 17 17 19 21 18 21 15 20 21 22 22 16 15 16 15 16 13 13 13 16 18 17 17 17 16 15 15 23 28 32 38 41
56 57 58 58 58 58 58 58 58 57 57 55 53 51 49 48 47 46 47 42 41 41 44 45 44 44 48 47 44 44 43 41 40 41 42 38 35 31 32 32 34 37 41 40 42 38 33 29 28 21 19 17 15 17 17 16 17 21 17 21 21 20 22 20 20 21 22 17 16 16 15 15 15 14 15 14 17 17 17 18 16 15 15 18 24 29 33 35
56 57 58 58 58 58 58 58 57 57 55 53 50 49 48 47 48 47 44 40 38 43 43 44 41 42 43 46 47 41 41 39 39 39 39 40 34 32 32 31 32 35 36 37 36 36 30 31 27 21 18 16 14 14 14 18 18 17 19 19 18 22 18 18 17 22 20 13 12 19 14 15 15 17 18 17 15 17 19 18 19 18 15 17 19 24 29 31
57 57 58 58 57 57 58 58 57 55 53 52 50 48 47 47 46 45 42 38 36 38 39 40 40 42 41 41 44 40 39 38 39 38 40 35 31 32 31 31 31 33 35 36 36 36 33 30 25 22 19 16 14 13 14 13 12 21 23 22 21 22 18 16 15 20 19 19 19 13 17 13 12 12 13 16 19 18 19 21 20 21 27 26 29 27 28 28
57 57 57 57 57 57 57 57 54 53 53 52 48 47 47 46 45 41 36 32 35 34 42 42 43 42 41 44 41 41 36 40 37 39 39 34 30 30 29 30 31 31 33 34 34 34 33 29 22 21 20 16 15 13 16 18 13 15 25 21 17 20 17 19 19 17 16 16 20 16 11 15 18 13 12 14 16 16 18 18 18 18 20 27 27 27 29 33
57 57 57 57 56 57 57 53 52 53 51 49 46 46 46 45 41 39 32 29 28 31 38 37 43 34 44 43 40 38 43 33 34 37 37 35 36 29 29 28 30 29 31 32 33 37 34 27 22 20 20 22 18 14 19 16 13 15 12 23 17 19 20 20 19 18 12 15 17 12 11 14 15 10 9 11 13 15 17 20 19 19 19 26 28 29 32 32
57 57 57 56 56 57 53 49 53 52 49 48 47 46 46 46 43 43 31 26 26 32 34 36 37 36 42 40 37 36 31 33 39 37 35 40 30 31 27 27 28 30 31 32 30 31 26 25 23 26 19 22 20 15 19 14 15 14 22 27 20 20 22 21 19 19 18 23 22 22 14 10 10 6 14 16 11 11 13 16 19 20 21 25 29 31 35 37
57 57 56 57 56 55 52 53 51 49 48 47 48 46 47 45 43 36 30 24 22 33 30 33 34 42 44 41 41 37 35 36 32 34 35 38 31 26 27 26 28 29 30 31 27 36 27 27 27 25 24 20 17 16 26 15 15 17 28 25 21 20 21 22 20 22 23 18 17 19 23 6 11 11 16 13 11 11 11 14 17 19 21 25 31 33 37 39
57 56 56 56 56 55 55 52 51 49 48 48 48 48 48 43 47 32 26 19 28 26 36 30 38 37 39 42 39 35 32 33 32 33 37 36 37 25 25 24 27 29 29 30 32 31 30 29 26 25 24 18 23 20 23 18 15 27 30 31 30 28 28 24 20 22 18 11 13 16 16 7 11 17 16 11 11 11 11 12 15 18 20 25 30 34 39 40
56 56 56 55 55 54 53 53 52 50 48 48 49 49 48 46 38 30 24 18 29 25 30 32 35 34 39 36 38 35 32 30 32 33 34 31 33 32 27 24 26 28 29 28 30 33 33 31 30 31 24 22 24 28 33 21 23 31 28 25 25 26 25 24 23 20 16 8 15 20 21 8 7 17 9 11 14 9 10 12 14 18 22 27 33 37 40 40
56 56 55 55 52 52 51 49 51 51 51 50 50 50 46 41 32 26 21 24 29 28 30 30 30 36 35 35 34 36 33 33 31 32 30 30 29 27 26 25 32 29 29 30 29 32 30 34 32 33 32 31 29 30 32 34 30 26 25 23 21 22 24 23 22 22 10 10 16 21 20 8 8 13 16 14 12 12 10 10 11 15 20 26 33 38 39 39
55 56 55 53 52 51 48 48 51 50 49 50 48 44 39 31 32 24 21 26 23 25 27 28 31 33 34 36 34 35 34 32 30 30 29 28 28 24 22 22 26 26 25 27 27 30 27 29 35 34 36 28 30 27 27 31 30 24 22 16 17 14 19 9 13 10 9 7 14 15 19 16 13 12 10 12 11 10 10 10 10 16 21 28 35 38 39 39
55 55 54 53 52 51 50 51 51 50 50 50 46 43 34 30 23 23 24 24 22 27 26 30 30 31 32 32 32 32 35 29 30 29 29 29 26 25 26 22 25 27 24 27 27 26 27 34 31 34 32 29 30 20 24 25 26 21 16 16 16 12 6 5 7 7 7 13 16 15 18 12 15 13 16 16 15 14 10 13 18 19 24 31 36 38 39 38
55 54 52 52 52 51 51 51 51 50 49 47 43 36 34 27 24 30 25 25 25 27 27 28 30 30 30 29 30 31 28 28 28 27 27 27 26 23 24 25 23 27 28 26 24 25 23 23 25 28 25 31 28 25 25 27 23 18 22 18 20 17 8 1 5 7 11 15 13 19 9 13 10 11 15 15 17 22 27 31 30 28 31 34 35 36 37 38
55 52 52 52 51 51 51 51 51 51 47 44 40 33 27 25 24 24 24 25 26 26 27 29 29 29 27 31 32 30 30 27 28 27 27 26 24 23 22 22 23 25 29 24 25 24 25 25 28 35 31 29 28 31 30 28 25 25 27 23 20 19 20 12 14 13 9 8 7 9 12 17 11 14 19 20 24 29 31 33 33 34 35 36 38 39 39 39
52 51 52 50 50 51 51 52 51 50 45 42 34 30 28 27 22 25 25 25 25 26 27 28 28 26 26 28 31 29 32 28 27 27 26 26 25 23 24 23 22 22 24 23 25 22 24 21 31 34 31 28 30 30 27 28 20 22 19 19 23 23 17 14 13 15 11 8 6 12 12 16 14 6 14 20 21 25 28 31 33 34 35 36 38 38 38 39
50 50 48 49 50 51 51 51 51 48 44 38 33 29 30 25 27 27 29 24 25 27 27 25 25 25 25 26 28 29 30 29 28 26 24 27 24 24 23 23 24 22 23 22 22 29 23 26 31 31 27 30 31 30 32 28 28 21 16 19 26 25 22 16 8 8 6 7 11 10 8 9 3 10 18 16 18 18 22 27 32 33 34 36 37 37 38 39
49 48 48 48 50 51 51 51 50 44 38 34 30 31 27 23 30 27 27 26 27 27 26 25 26 26 24 26 26 27 29 24 26 25 24 25 24 25 23 22 24 21 21 23 22 24 29 24 26 30 31 34 35 31 26 30 30 24 22 26 17 12 9 14 13 2 1 2 3 7 13 10 8 7 13 8 14 15 18 24 28 32 34 35 36 36 36 36
49 47 43 48 51 51 51 50 48 42 36 31 30 31 28 30 29 27 26 27 28 27 25 26 24 25 25 24 26 27 27 22 26 24 22 24 21 25 23 23 25 22 21 20 19 25 27 24 26 30 30 32 30 28 23 24 28 30 26 19 24 19 21 9 12 13 13 5 -1 11 9 11 16 9 11 10 11 14 16 22 27 31 33 35 35 36 37 37
46 43 41 50 51 51 51 49 46 42 35 30 30 28 30 26 29 28 27 28 27 26 25 26 26 24 25 25 26 25 27 24 25 24 23 24 23 26 22 24 22 24 20 20 21 30 19 28 24 27 31 28 23 26 24 23 22 20 21 18 19 18 21 19 15 14 10 5 5 2 0 15 14 15 11 10 10 13 15 19 26 29 32 34 35 36 38 38
46 42 42 50 50 51 49 46 42 38 34 32 30 28 30 27 28 27 30 30 28 28 25 26 25 23 25 26 25 27 26 26 25 24 24 24 21 22 25 22 26 23 25 21 23 24 23 21 22 26 26 23 26 31 29 27 26 23 21 19 19 18 12 8 14 14 9 6 2 -1 5 16 18 17 12 9 11 15 19 19 22 27 30 33 35 37 38 38
42 36 40 50 50 49 46 40 40 40 35 32 29 30 29 35 26 27 28 30 28 26 28 25 25 26 26 25 25 27 26 25 25 24 25 24 23 27 26 25 23 24 21 19 20 29 29 29 27 25 27 27 28 29 31 30 31 26 22 22 22 21 18 13 7 14 9 9 14 11 1 13 15 17 17 16 17 17 16 21 19 24 29 32 35 37 37 38
40 39 48 50 50 47 43 38 40 38 35 34 33 31 34 27 25 27 27 28 26 29 25 25 24 25 26 25 26 27 26 24 26 24 26 26 24 24 29 24 25 23 21 25 29 26 34 28 26 26 27 29 29 31 32 31 30 27 26 27 22 18 20 17 19 18 15 8 6 3 -2 12 21 25 23 24 25 25 23 20 20 22 27 31 35 37 37 37
43 42 44 49 49 47 41 33 33 35 34 32 32 31 34 29 26 26 25 25 27 25 24 25 26 24 25 27 26 26 26 21 26 27 25 27 24 30 29 25 24 25 22 25 19 30 21 23 23 23 22 24 25 27 25 28 29 26 24 27 25 24 22 22 16 13 9 13 15 10 6 7 21 24 23 18 16 16 17 19 23 25 28 31 35 36 37 37
44 45 45 46 49 46 39 39 37 35 33 31 30 31 30 30 32 26 25 25 31 25 25 24 25 27 26 28 27 27 27 25 26 28 27 27 25 32 31 30 24 24 23 32 33 32 29 28 25 20 18 18 17 18 19 22 26 27 26 24 25 23 20 15 10 10 6 14 12 5 7 14 15 18 16 16 14 16 20 20 24 27 29 32 35 36 37 37
40 33 40 43 45 44 43 43 37 35 32 30 29 30 29 31 33 35 28 31 35 32 30 30 29 28 28 28 27 27 26 30 26 26 26 26 26 27 31 28 24 27 30 34 34 27 27 29 24 22 19 18 19 22 27 28 25 24 25 25 25 26 23 23 24 16 12 16 13 13 13 12 10 11 15 17 15 16 19 23 24 27 29 33 35 36 37 37
39 37 38 35 41 42 40 41 38 32 30 32 27 29 29 30 32 31 34 27 33 30 31 28 29 27 27 27 26 27 27 28 28 28 26 26 30 28 32 31 32 32 35 33 32 27 29 24 25 23 22 20 23 22 26 25 24 24 25 25 27 26 25 24 20 16 21 18 12 20 20 15 11 15 18 18 20 18 20 23 24 27 30 33 35 36 37 37
34 36 39 41 35 34 36 37 39 32 32 31 28 29 30 31 28 27 32 34 34 32 27 29 28 28 27 26 27 25 27 26 27 26 27 28 27 28 28 30 29 33 33 28 31 24 25 23 26 25 24 26 24 20 25 23 22 23 24 24 25 26 25 24 23 22 22 17 12 15 19 17 16 18 16 16 17 13 14 18 25 27 32 35 35 36 37 37
36 35 37 40 36 37 37 36 38 32 32 31 29 30 31 30 27 29 30 31 30 29 29 25 26 28 28 28 27 25 27 25 25 26 26 27 27 27 25 27 29 32 29 27 26 29 20 21 26 24 24 25 28 25 28 25 24 25 25 25 25 27 25 24 23 24 22 20 20 18 21 20 19 18 17 17 21 19 16 27 31 31 32 34 36 36 36 36
34 35 35 38 37 37 38 38 36 32 30 33 27 30 31 29 29 32 32 30 27 28 32 26 27 28 28 28 27 26 27 26 26 25 27 26 24 26 25 27 27 26 28 26 26 25 21 20 27 24 21 21 28 29 28 27 26 23 26 27 27 27 26 25 23 23 24 22 22 22 22 21 22 22 21 23 23 23 24 26 27 28 32 34 35 36 36 36
35 35 36 37 35 37 37 36 34 31 30 28 27 28 30 30 31 33 34 37 28 28 30 27 29 29 29 28 27 27 29 28 28 28 28 27 25 28 25 26 28 27 28 27 26 26 27 20 27 22 19 17 26 26 26 26 25 24 24 26 27 27 25 25 24 24 23 22 21 22 21 19 20 24 24 24 23 19 17 19 23 28 32 34 34 35 36 36
37 37 37 38 33 36 34 34 32 30 29 29 28 29 29 30 32 34 31 34 36 34 32 31 30 28 28 28 27 28 31 31 31 32 29 28 30 33 33 30 28 27 27 26 30 25 27 27 22 23 19 17 24 26 24 25 22 21 23 24 27 27 26 26 26 26 24 23 21 22 19 20 25 25 23 24 23 21 20 18 20 26 32 34 34 34 35 35